Location: Ar Ranvel
(48.3000°N, 4.8833°W)
Time: 08:46:56
(UTC+00:00)

Cosmos 2058 Rocket - Pass Details

Date: 16 June 2021
Orbit: 609 x 640 km, 82.5° (Epoch: 27 July)

Event Time Altitude Azimuth Distance (km) Brightness Sun altitude
Rises 23:17:00 0° 354° (N) 2,937 8.2 -16.9°
Reaches altitude 10° 23:19:18 10° 359° (N) 2,020 6.9 -17.0°
Maximum altitude 23:23:42 54° 77° (ENE) 765 3.5 -17.2°
Enters shadow 23:25:34 31° 139° (SE) 1,103 3.8 -17.3°
